AUA26L LOWW-EDDS

Flight info

Callsign AUA26L
Flight time 0h 51m
Altitude 30000
Route LUGEM1C/29 LUGEM DCT KIRDI DCT EBEDA L173 MAH/N0411F240 L173 DODIL T127 TEKSI TEKSI1W
Aircraft A320/M-SDE3FGHIRWY/LB1

Departure

Time 2026-05-07 19:03
Airport Vienna International Airport (LOWW)

Arrival

Time 2026-05-07 19:55
Airport Stuttgart Airport (EDDS)
Time Latitude Longitude Altitude Speed Heading
2026-05-07 18:26 48.11880 16.56822 618 ft 0 kts 206°
2026-05-07 18:52 48.11900 16.56837 623 ft 4 kts 206°
2026-05-07 18:53 48.11923 16.56854 624 ft 4 kts 199°
2026-05-07 18:53 48.11945 16.56855 624 ft 4 kts 136°
2026-05-07 18:53 48.11956 16.56832 623 ft 0 kts 116°
2026-05-07 18:57 48.11943 16.56873 615 ft 10 kts 116°
2026-05-07 18:57 48.11911 16.56971 616 ft 8 kts 115°
2026-05-07 18:57 48.11892 16.57033 611 ft 6 kts 115°
2026-05-07 18:57 48.11863 16.57120 617 ft 14 kts 115°
2026-05-07 18:58 48.11840 16.57260 623 ft 13 kts 116°
2026-05-07 18:58 48.11787 16.57354 620 ft 12 kts 158°
2026-05-07 18:58 48.11689 16.57397 614 ft 18 kts 165°
2026-05-07 18:58 48.11560 16.57451 617 ft 18 kts 164°
2026-05-07 18:59 48.11448 16.57429 623 ft 17 kts 206°
2026-05-07 18:59 48.11343 16.57353 623 ft 17 kts 205°
2026-05-07 18:59 48.11248 16.57285 610 ft 10 kts 205°
2026-05-07 18:59 48.11198 16.57306 621 ft 7 kts 122°
2026-05-07 19:00 48.11178 16.57369 622 ft 8 kts 115°
2026-05-07 19:00 48.11142 16.57481 619 ft 16 kts 116°
2026-05-07 19:00 48.11095 16.57621 620 ft 13 kts 122°
2026-05-07 19:00 48.11027 16.57636 610 ft 8 kts 206°
2026-05-07 19:01 48.11018 16.57629 617 ft 0 kts 205°
2026-05-07 19:01 48.11002 16.57618 610 ft 8 kts 205°
2026-05-07 19:01 48.10920 16.57534 615 ft 13 kts 246°
2026-05-07 19:01 48.10950 16.57423 618 ft 7 kts 295°
2026-05-07 19:02 48.10952 16.57419 616 ft 0 kts 295°
2026-05-07 19:03 48.10996 16.57282 610 ft 47 kts 296°
2026-05-07 19:03 48.11250 16.56503 615 ft 116 kts 296°
2026-05-07 19:03 48.11685 16.55171 718 ft 156 kts 293°
2026-05-07 19:03 48.12088 16.53709 1420 ft 152 kts 275°
2026-05-07 19:04 48.12008 16.52101 1931 ft 164 kts 260°
2026-05-07 19:04 48.11825 16.50304 2284 ft 187 kts 261°
2026-05-07 19:04 48.11618 16.48247 2638 ft 214 kts 262°
2026-05-07 19:04 48.11334 16.45935 3137 ft 237 kts 259°
2026-05-07 19:05 48.11084 16.44291 3504 ft 252 kts 258°
2026-05-07 19:05 48.10644 16.41667 4250 ft 263 kts 257°
2026-05-07 19:05 48.10167 16.39011 5281 ft 264 kts 257°
2026-05-07 19:05 48.09813 16.36321 6271 ft 266 kts 270°
2026-05-07 19:06 48.09879 16.32619 7468 ft 270 kts 273°
2026-05-07 19:06 48.09983 16.27853 9028 ft 276 kts 273°
2026-05-07 19:06 48.10038 16.24968 9942 ft 279 kts 272°
2026-05-07 19:07 48.10084 16.21990 10471 ft 297 kts 272°
2026-05-07 19:07 48.10260 16.18794 10765 ft 320 kts 278°
2026-05-07 19:07 48.10563 16.15398 11203 ft 336 kts 278°
2026-05-07 19:07 48.10874 16.11942 11927 ft 341 kts 277°
2026-05-07 19:08 48.11194 16.08403 12725 ft 345 kts 277°
2026-05-07 19:08 48.11516 16.04826 13523 ft 348 kts 277°
2026-05-07 19:08 48.11843 16.01219 14258 ft 352 kts 277°
2026-05-07 19:08 48.12171 15.97573 14946 ft 355 kts 276°
2026-05-07 19:09 48.12499 15.93887 15617 ft 359 kts 276°
2026-05-07 19:09 48.12828 15.90164 16276 ft 363 kts 276°
2026-05-07 19:09 48.13020 15.87968 16662 ft 366 kts 276°
2026-05-07 19:09 48.13235 15.85306 17048 ft 365 kts 276°
2026-05-07 19:10 48.13566 15.81506 17636 ft 371 kts 276°
2026-05-07 19:10 48.13909 15.77663 18282 ft 375 kts 276°
2026-05-07 19:10 48.14259 15.73779 18870 ft 378 kts 276°
2026-05-07 19:10 48.14609 15.69857 19470 ft 381 kts 276°
2026-05-07 19:11 48.14956 15.65909 20068 ft 384 kts 276°
2026-05-07 19:11 48.15299 15.61934 20667 ft 387 kts 276°
2026-05-07 19:11 48.15644 15.57920 21250 ft 390 kts 276°
2026-05-07 19:11 48.15987 15.53891 21833 ft 392 kts 276°
2026-05-07 19:12 48.16334 15.49821 22417 ft 394 kts 276°
2026-05-07 19:12 48.16679 15.45736 22957 ft 397 kts 276°
2026-05-07 19:12 48.17024 15.41625 23477 ft 400 kts 275°
2026-05-07 19:12 48.17275 15.37463 23913 ft 402 kts 270°
2026-05-07 19:13 48.17377 15.33262 24338 ft 404 kts 270°
2026-05-07 19:13 48.17478 15.29046 24753 ft 406 kts 270°
2026-05-07 19:13 48.17575 15.24862 25161 ft 408 kts 270°
2026-05-07 19:13 48.17675 15.20606 25566 ft 410 kts 270°
2026-05-07 19:14 48.17775 15.16317 25968 ft 412 kts 270°
2026-05-07 19:14 48.17872 15.12022 26358 ft 415 kts 270°
2026-05-07 19:14 48.17967 15.07699 26800 ft 415 kts 270°
2026-05-07 19:14 48.18060 15.03379 27228 ft 416 kts 270°
2026-05-07 19:15 48.18153 14.99042 27608 ft 417 kts 270°
2026-05-07 19:15 48.18247 14.94697 27973 ft 419 kts 270°
2026-05-07 19:15 48.18341 14.90323 28325 ft 421 kts 270°
2026-05-07 19:15 48.18434 14.85932 28664 ft 422 kts 270°
2026-05-07 19:16 48.18525 14.81528 28989 ft 424 kts 270°
2026-05-07 19:16 48.18612 14.77104 29297 ft 425 kts 270°
2026-05-07 19:16 48.18698 14.72659 29591 ft 427 kts 270°
2026-05-07 19:16 48.18782 14.68209 29875 ft 429 kts 270°
2026-05-07 19:17 48.18864 14.63733 30140 ft 430 kts 270°
2026-05-07 19:17 48.18944 14.59248 30391 ft 431 kts 270°
2026-05-07 19:17 48.19025 14.54752 30678 ft 430 kts 270°
2026-05-07 19:17 48.19105 14.50284 30961 ft 429 kts 270°
2026-05-07 19:18 48.19185 14.45811 31240 ft 429 kts 270°
2026-05-07 19:18 48.19262 14.41340 31528 ft 429 kts 270°
2026-05-07 19:18 48.19336 14.36868 31815 ft 428 kts 270°
2026-05-07 19:18 48.19404 14.32410 32103 ft 428 kts 270°
2026-05-07 19:19 48.19468 14.27999 32390 ft 428 kts 270°
2026-05-07 19:19 48.19531 14.23490 32704 ft 427 kts 270°
2026-05-07 19:19 48.19594 14.19091 32988 ft 426 kts 270°
2026-05-07 19:19 48.19657 14.14667 33310 ft 425 kts 270°
2026-05-07 19:20 48.19721 14.10233 33611 ft 425 kts 270°
2026-05-07 19:20 48.19786 14.05815 33911 ft 425 kts 270°
2026-05-07 19:20 48.19848 14.01384 34178 ft 424 kts 270°
2026-05-07 19:20 48.19907 13.96969 34421 ft 424 kts 270°
2026-05-07 19:21 48.19959 13.92546 34666 ft 424 kts 270°
2026-05-07 19:21 48.20007 13.88122 34907 ft 424 kts 269°
2026-05-07 19:21 48.20055 13.83700 35142 ft 424 kts 269°
2026-05-07 19:21 48.20103 13.79272 35384 ft 425 kts 270°
2026-05-07 19:22 48.20151 13.74853 35594 ft 425 kts 270°
2026-05-07 19:22 48.20199 13.70422 35807 ft 425 kts 270°
2026-05-07 19:22 48.20245 13.66042 35994 ft 425 kts 270°
2026-05-07 19:22 48.20289 13.61609 36059 ft 426 kts 270°
2026-05-07 19:23 48.20376 13.52732 36070 ft 425 kts 269°
2026-05-07 19:23 48.20454 13.43867 36064 ft 426 kts 269°
2026-05-07 19:24 48.20518 13.35000 36073 ft 425 kts 269°
2026-05-07 19:24 48.20568 13.26143 36064 ft 425 kts 269°
2026-05-07 19:25 48.20621 13.17284 36065 ft 425 kts 269°
2026-05-07 19:25 48.20673 13.08419 36069 ft 425 kts 269°
2026-05-07 19:26 48.20712 12.99561 36070 ft 425 kts 269°
2026-05-07 19:26 48.20743 12.90703 36081 ft 425 kts 269°
2026-05-07 19:27 48.20734 12.81846 36073 ft 424 kts 265°
2026-05-07 19:27 48.20174 12.73030 36071 ft 425 kts 264°
2026-05-07 19:28 48.19588 12.64219 36075 ft 425 kts 264°
2026-05-07 19:28 48.19291 12.59807 35924 ft 425 kts 264°
2026-05-07 19:28 48.18993 12.55401 35682 ft 424 kts 264°
2026-05-07 19:29 48.18695 12.51007 35435 ft 424 kts 264°
2026-05-07 19:29 48.18395 12.46610 35194 ft 425 kts 264°
2026-05-07 19:29 48.18092 12.42192 34959 ft 427 kts 264°
2026-05-07 19:29 48.17787 12.37772 34723 ft 426 kts 264°
2026-05-07 19:30 48.17483 12.33374 34490 ft 423 kts 264°
2026-05-07 19:30 48.17183 12.29059 34262 ft 421 kts 264°
2026-05-07 19:30 48.16880 12.24714 34022 ft 418 kts 264°
2026-05-07 19:30 48.16577 12.20388 33748 ft 416 kts 264°
2026-05-07 19:31 48.16273 12.16083 33471 ft 414 kts 264°
2026-05-07 19:31 48.16135 12.11777 33197 ft 412 kts 272°
2026-05-07 19:31 48.16557 12.07551 32943 ft 411 kts 285°
2026-05-07 19:31 48.17558 12.03531 32666 ft 411 kts 290°
2026-05-07 19:32 48.18619 11.99557 32400 ft 410 kts 290°
2026-05-07 19:32 48.19686 11.95606 32142 ft 408 kts 291°
2026-05-07 19:32 48.20755 11.91671 31880 ft 407 kts 291°
2026-05-07 19:32 48.21820 11.87758 31622 ft 405 kts 291°
2026-05-07 19:33 48.22882 11.83853 31360 ft 403 kts 291°
2026-05-07 19:33 48.23938 11.79965 31113 ft 402 kts 291°
2026-05-07 19:33 48.24988 11.76089 30859 ft 400 kts 291°
2026-05-07 19:33 48.26018 11.72277 30618 ft 399 kts 291°
2026-05-07 19:34 48.27055 11.68433 30376 ft 397 kts 291°
2026-05-07 19:34 48.28089 11.64591 30124 ft 396 kts 291°
2026-05-07 19:34 48.29117 11.60768 29831 ft 394 kts 291°
2026-05-07 19:34 48.30138 11.56955 29543 ft 393 kts 291°
2026-05-07 19:35 48.31155 11.53150 29251 ft 391 kts 291°
2026-05-07 19:35 48.32162 11.49371 28969 ft 389 kts 291°
2026-05-07 19:35 48.33169 11.45595 28685 ft 388 kts 291°
2026-05-07 19:35 48.34169 11.41841 28406 ft 386 kts 291°
2026-05-07 19:36 48.35162 11.38105 28134 ft 385 kts 291°
2026-05-07 19:36 48.36151 11.34373 27855 ft 383 kts 291°
2026-05-07 19:36 48.37136 11.30653 27577 ft 381 kts 291°
2026-05-07 19:36 48.38114 11.26954 27331 ft 380 kts 291°
2026-05-07 19:37 48.39088 11.23265 27069 ft 378 kts 291°
2026-05-07 19:37 48.40060 11.19579 26544 ft 378 kts 291°
2026-05-07 19:37 48.41025 11.15913 25927 ft 377 kts 291°
2026-05-07 19:37 48.41988 11.12247 25321 ft 376 kts 291°
2026-05-07 19:38 48.42942 11.08618 24984 ft 369 kts 291°
2026-05-07 19:38 48.43876 11.05064 24397 ft 361 kts 291°
2026-05-07 19:38 48.44795 11.01567 23709 ft 358 kts 290°
2026-05-07 19:38 48.45701 10.98097 22930 ft 355 kts 290°
2026-05-07 19:39 48.46604 10.94637 22398 ft 355 kts 290°
2026-05-07 19:39 48.47493 10.91226 21868 ft 353 kts 290°
2026-05-07 19:39 48.48392 10.87754 21363 ft 350 kts 290°
2026-05-07 19:39 48.49264 10.84387 20869 ft 348 kts 290°
2026-05-07 19:40 48.50143 10.80988 20397 ft 346 kts 290°
2026-05-07 19:40 48.51018 10.77612 20073 ft 344 kts 290°
2026-05-07 19:40 48.51890 10.74239 19495 ft 345 kts 290°
2026-05-07 19:40 48.52757 10.70882 19026 ft 343 kts 290°
2026-05-07 19:41 48.53619 10.67541 18590 ft 341 kts 290°
2026-05-07 19:41 48.54477 10.64217 18113 ft 339 kts 290°
2026-05-07 19:41 48.55327 10.60918 17656 ft 336 kts 290°
2026-05-07 19:41 48.56166 10.57645 17208 ft 333 kts 290°
2026-05-07 19:42 48.56997 10.54396 16754 ft 331 kts 290°
2026-05-07 19:42 48.57808 10.51160 16333 ft 328 kts 286°
2026-05-07 19:42 48.58386 10.47850 16083 ft 325 kts 283°
2026-05-07 19:42 48.58922 10.44537 15832 ft 324 kts 282°
2026-05-07 19:43 48.59447 10.41227 15571 ft 324 kts 282°
2026-05-07 19:43 48.59969 10.37890 15144 ft 330 kts 282°
2026-05-07 19:43 48.60492 10.34554 14889 ft 323 kts 282°
2026-05-07 19:43 48.61007 10.31282 14555 ft 318 kts 282°
2026-05-07 19:44 48.61512 10.28049 14076 ft 314 kts 282°
2026-05-07 19:44 48.62002 10.24897 13497 ft 311 kts 282°
2026-05-07 19:44 48.62504 10.21689 12884 ft 308 kts 282°
2026-05-07 19:44 48.62996 10.18550 12246 ft 307 kts 282°
2026-05-07 19:45 48.63479 10.15464 11700 ft 304 kts 282°
2026-05-07 19:45 48.63965 10.12358 11198 ft 304 kts 282°
2026-05-07 19:45 48.64448 10.09254 10843 ft 300 kts 282°
2026-05-07 19:45 48.64925 10.06189 10777 ft 300 kts 282°
2026-05-07 19:46 48.65401 10.03120 10666 ft 299 kts 282°
2026-05-07 19:46 48.65875 10.00047 10540 ft 300 kts 282°
2026-05-07 19:46 48.66340 9.97030 10409 ft 288 kts 281°
2026-05-07 19:46 48.66786 9.94139 10243 ft 278 kts 281°
2026-05-07 19:47 48.67219 9.91302 10155 ft 277 kts 281°
2026-05-07 19:47 48.67648 9.88467 10025 ft 277 kts 281°
2026-05-07 19:47 48.68082 9.85588 9408 ft 283 kts 281°
2026-05-07 19:47 48.68513 9.82757 8964 ft 272 kts 281°
2026-05-07 19:48 48.68933 9.79991 8297 ft 268 kts 282°
2026-05-07 19:48 48.69348 9.77254 7611 ft 266 kts 282°
2026-05-07 19:48 48.69759 9.74540 6930 ft 264 kts 282°
2026-05-07 19:48 48.70170 9.71840 6255 ft 262 kts 282°
2026-05-07 19:49 48.70572 9.69190 5843 ft 249 kts 283°
2026-05-07 19:49 48.70952 9.66694 5383 ft 240 kts 283°
2026-05-07 19:49 48.71321 9.64259 5086 ft 232 kts 283°
2026-05-07 19:49 48.71677 9.61889 4938 ft 230 kts 283°
2026-05-07 19:50 48.72033 9.59522 4824 ft 231 kts 283°
2026-05-07 19:50 48.72388 9.57152 4712 ft 231 kts 283°
2026-05-07 19:50 48.72744 9.54778 4614 ft 231 kts 283°
2026-05-07 19:50 48.73099 9.52409 4512 ft 231 kts 283°
2026-05-07 19:51 48.73453 9.50039 4412 ft 231 kts 283°
2026-05-07 19:51 48.73672 9.47644 4286 ft 231 kts 267°
2026-05-07 19:51 48.73343 9.45292 4037 ft 227 kts 255°
2026-05-07 19:51 48.72912 9.43034 3736 ft 218 kts 255°
2026-05-07 19:52 48.72640 9.41596 3558 ft 212 kts 255°
2026-05-07 19:52 48.72246 9.39504 3311 ft 200 kts 255°
2026-05-07 19:52 48.71874 9.37520 3021 ft 192 kts 255°
2026-05-07 19:52 48.71519 9.35630 2771 ft 180 kts 255°
2026-05-07 19:53 48.71187 9.33864 2539 ft 167 kts 255°
2026-05-07 19:53 48.70885 9.32259 2320 ft 151 kts 255°
2026-05-07 19:53 48.70605 9.30769 2109 ft 145 kts 255°
2026-05-07 19:53 48.70332 9.29323 1899 ft 141 kts 255°
2026-05-07 19:54 48.70066 9.27902 1716 ft 140 kts 255°
2026-05-07 19:54 48.69803 9.26491 1526 ft 138 kts 255°
2026-05-07 19:54 48.69540 9.25102 1345 ft 137 kts 255°
2026-05-07 19:54 48.69275 9.23719 1207 ft 130 kts 256°
2026-05-07 19:55 48.69066 9.22605 1225 ft 87 kts 254°
2026-05-07 19:55 48.68935 9.21916 1243 ft 58 kts 253°
2026-05-07 19:55 48.68833 9.21382 1258 ft 48 kts 254°
2026-05-07 19:55 48.68744 9.20920 1273 ft 45 kts 253°
2026-05-07 19:56 48.68677 9.20476 1274 ft 40 kts 267°
2026-05-07 19:56 48.68710 9.20138 1285 ft 16 kts 287°
2026-05-07 19:56 48.68715 9.20114 1287 ft 0 kts 288°
2026-05-07 19:57 48.68716 9.20110 1287 ft 3 kts 288°
2026-05-07 19:57 48.68742 9.20035 1290 ft 8 kts 306°
2026-05-07 19:57 48.68775 9.19980 1293 ft 8 kts 314°
2026-05-07 19:57 48.68820 9.19913 1297 ft 11 kts 321°
2026-05-07 19:58 48.68888 9.19855 1303 ft 8 kts 298°
2026-05-07 19:58 48.68885 9.19794 1305 ft 4 kts 256°
2026-05-07 19:58 48.68881 9.19771 1306 ft 5 kts 253°
2026-05-07 19:58 48.68858 9.19652 1309 ft 14 kts 253°
2026-05-07 19:59 48.68835 9.19533 1311 ft 10 kts 254°
2026-05-07 19:59 48.68835 9.19461 1313 ft 5 kts 308°
2026-05-07 19:59 48.68862 9.19442 1314 ft 3 kts 346°
2026-05-07 19:59 48.68880 9.19435 1315 ft 4 kts 345°
2026-05-07 20:00 48.68897 9.19428 1315 ft 0 kts 344°